CAPE
nan nan nan nan nan nan nan nan nan nan nan nan nan nan nan nan nan nan nan nan nan nan nan nan nan nan nan 14 32 32 43 50 59 59 64 69 67 67 68 77 77 89 106 123 123 135 133 123 123 95 83 82 88 88 93 86 86 76 60 55 55 56 60 62 62 57 51 39 47 47 58 64 56 56 47 35 31 31 34 32 32 35 36 32 32 23
nan nan nan nan nan nan nan nan nan nan nan nan nan nan nan nan nan nan nan nan nan nan nan nan nan nan nan nan 26 26 40 50 56 56 63 68 70 70 69 74 74 85 93 106 106 112 111 96 96 78 67 65 70 70 77 66 66 55 45 45 45 49 52 57 57 55 47 37 38 38 47 53 50 50 42 35 30 30 29 27 27 29 28 26 26 15
nan nan nan nan nan nan nan nan nan nan nan nan nan nan nan nan nan nan nan nan nan nan nan nan nan nan nan nan 29 29 40 48 56 56 62 68 70 70 68 70 70 77 83 82 82 82 79 79 79 67 56 51 61 61 64 48 48 34 26 28 28 34 38 42 42 40 39 33 33 33 40 44 39 39 36 31 27 27 24 22 22 24 24 24 24 20
nan nan nan nan nan nan nan nan nan nan nan nan nan nan nan nan nan nan nan nan nan nan nan nan nan nan nan nan 12 12 37 48 57 57 63 67 70 70 65 66 66 72 77 71 71 67 65 68 68 63 50 47 50 50 52 36 36 20 15 17 17 19 22 24 24 24 24 26 28 28 33 37 32 32 29 24 18 18 18 18 18 20 25 27 27 24
nan nan nan nan nan nan nan nan nan nan nan nan nan nan nan nan nan nan nan nan nan nan nan nan nan nan nan nan 0 0 34 49 61 61 65 64 62 62 58 58 58 61 67 67 67 61 57 58 58 55 46 42 45 45 57 36 36 27 22 18 18 17 15 18 18 17 15 18 24 24 30 32 25 25 22 17 14 14 14 16 16 19 23 28 28 27
nan nan nan nan nan nan nan nan nan nan nan nan nan nan nan nan nan nan nan nan nan nan nan nan nan nan nan nan 0 0 31 48 57 57 63 60 57 57 53 53 53 56 59 61 61 58 53 52 52 51 49 44 61 61 81 71 71 53 39 30 30 25 20 18 18 15 16 19 24 24 29 31 25 25 19 13 10 10 10 14 14 17 20 24 24 27
nan nan nan nan nan nan nan nan nan nan nan nan nan nan nan nan nan nan nan nan nan nan nan nan nan nan nan nan 8 8 31 41 50 50 49 46 43 43 44 46 46 51 55 57 57 57 54 51 51 59 87 111 83 83 73 66 66 54 45 41 41 36 33 24 24 22 24 25 30 30 32 31 25 25 19 13 8 8 6 8 8 12 17 22 22 27
nan nan nan nan nan nan nan nan nan nan nan nan nan nan nan nan nan nan nan nan nan nan nan nan nan nan nan nan nan nan nan nan nan nan 0 2 18 18 28 39 39 45 48 54 54 60 79 92 92 82 68 49 41 41 34 33 33 31 31 31 31 33 36 45 45 47 46 42 38 38 34 29 22 22 16 13 8 8 5 4 4 6 12 19 19 24
nan nan nan nan nan nan nan nan nan nan nan nan nan nan nan nan nan nan nan nan nan nan nan nan nan nan nan nan nan nan nan 2 nan nan nan nan nan nan 15 35 35 41 48 51 51 67 82 79 79 60 47 38 35 35 31 30 30 33 34 33 33 33 35 40 40 45 46 41 35 35 31 25 20 20 16 12 8 8 6 4 4 5 9 14 14 20
nan nan nan nan nan nan nan nan nan nan nan nan nan nan nan nan nan nan nan nan nan nan nan nan nan nan nan nan nan nan nan 1 25 25 35 15 31 31 22 21 21 22 38 45 45 57 59 49 49 37 35 35 35 35 35 35 35 35 36 37 37 35 35 37 37 38 38 38 33 33 29 25 19 19 16 13 10 10 7 4 4 3 5 12 12 17
nan nan nan nan nan nan nan nan nan nan nan nan nan nan nan nan nan nan nan nan nan nan nan nan nan nan nan nan nan nan nan nan nan nan 1 9 15 15 16 17 17 24 29 34 34 34 33 29 29 25 26 27 29 29 31 31 31 34 37 35 35 35 36 38 38 36 36 34 33 33 29 25 20 20 15 13 10 10 8 4 4 2 3 8 8 15
nan nan nan nan nan nan nan nan nan nan nan nan nan nan nan nan nan nan nan nan nan nan nan nan nan nan nan nan nan nan nan nan nan nan nan nan nan nan nan nan nan 2 6 11 11 10 13 12 12 15 12 12 17 17 20 23 23 31 33 35 35 36 36 38 38 36 34 33 34 34 31 27 19 19 14 12 10 10 8 6 6 3 2 8 8 13
nan nan nan nan nan nan nan nan nan nan nan nan nan nan nan nan nan nan nan nan nan nan nan nan nan nan nan nan nan nan nan nan nan nan nan nan nan nan nan nan nan nan nan nan nan nan 0 3 3 3 3 3 7 7 13 15 15 23 30 35 35 36 37 36 36 35 34 33 33 33 31 29 21 21 14 11 10 10 8 6 6 5 4 10 10 13
nan nan nan nan nan nan nan nan nan nan nan nan nan nan nan nan nan nan nan nan nan nan nan nan nan nan nan nan nan nan nan nan nan nan nan nan nan nan nan nan nan nan nan nan nan nan nan 0 0 nan 2 1 2 2 3 8 8 17 23 31 31 36 38 37 37 36 32 31 33 33 31 29 23 23 14 10 8 8 8 7 7 6 6 9 9 13
nan nan nan nan nan nan nan nan nan nan nan nan nan nan nan nan nan nan 1 nan nan nan 0 nan nan nan nan nan nan nan nan nan nan nan nan nan nan nan nan nan nan nan nan nan nan nan nan nan nan nan nan nan nan nan 1 5 5 15 17 25 25 30 35 35 35 35 33 32 31 31 31 29 24 24 15 10 7 7 7 7 7 7 6 9 9 12
nan nan nan nan nan 0 nan nan nan nan nan nan nan nan nan nan nan nan 0 2 2 1 1 1 1 nan nan nan nan nan nan nan nan nan nan nan nan nan nan nan nan nan nan nan nan nan nan nan nan nan nan 0 4 4 6 9 9 17 19 23 23 28 31 33 33 35 33 31 30 30 31 30 24 24 15 10 7 7 6 6 6 6 5 6 6 9
nan nan 1 1 1 3 1 1 nan nan nan nan nan nan nan nan nan nan nan 1 1 1 0 0 0 nan 0 nan nan nan nan nan nan nan nan nan nan nan nan nan nan nan nan nan nan nan nan nan nan nan nan 2 7 7 9 15 15 20 24 26 26 30 30 30 30 31 32 29 29 29 29 29 25 25 18 11 7 7 6 6 6 7 6 5 5 6
1 1 1 2 2 2 nan nan nan nan nan nan nan nan nan nan nan nan nan 0 0 0 nan nan nan nan nan 0 nan nan nan nan nan nan nan nan nan nan nan nan nan nan nan nan nan nan nan nan nan nan nan 10 13 13 16 23 23 28 33 36 36 39 37 36 36 33 31 28 26 26 26 28 24 24 19 13 8 8 7 8 8 8 8 6 6 4
3 nan nan nan nan nan nan nan nan nan nan nan nan nan nan nan nan nan nan nan nan nan nan nan nan nan 0 1 nan nan nan nan nan nan nan 0 nan nan nan 1 1 1 nan nan nan nan nan nan nan 0 13 17 18 18 23 30 30 36 44 51 51 53 49 49 49 44 40 33 29 29 27 27 27 27 21 14 10 10 8 8 8 10 9 7 7 4
0 0 nan nan nan nan nan nan nan nan nan nan nan nan nan nan nan nan nan nan nan nan nan nan nan nan 0 1 nan nan nan nan 0 0 1 1 nan nan nan 0 0 2 nan nan nan nan nan nan nan nan 16 18 20 20 26 33 33 40 50 56 56 64 63 61 61 61 55 45 38 38 32 32 32 32 26 19 14 14 10 9 9 10 12 10 10 4
nan nan nan nan nan nan nan nan nan nan 0 4 nan nan nan 0 1 1 0 nan nan nan nan nan nan nan nan 0 1 1 nan 1 2 2 3 2 nan nan nan 1 1 0 nan nan nan nan nan nan nan nan 5 17 20 20 24 30 30 38 46 52 52 57 61 65 65 62 61 58 50 50 43 39 36 36 30 23 18 18 13 11 11 12 13 9 9 5
nan nan nan nan nan nan nan nan 6 6 28 23 7 7 6 1 1 1 nan nan nan nan nan nan nan nan nan 1 0 0 nan 3 3 3 1 1 nan nan nan 0 0 1 nan nan nan nan nan nan nan nan 3 19 20 20 23 28 28 34 40 45 45 51 52 55 55 56 58 55 48 48 43 40 38 38 30 24 19 19 14 13 13 12 11 9 9 5
nan nan nan nan nan nan 1 0 3 3 8 nan 1 1 nan nan nan nan nan nan nan nan nan nan nan nan nan nan nan nan nan nan 0 0 0 0 nan nan nan 2 2 3 nan nan nan nan nan nan nan nan 4 20 19 19 22 28 28 32 38 41 41 44 46 48 48 49 47 46 43 43 39 38 32 32 28 23 19 19 15 13 13 11 12 9 9 4
0 4 8 3 3 nan nan nan nan nan nan nan nan nan nan nan nan nan nan nan nan nan nan nan nan nan nan 0 nan nan nan nan 1 1 0 2 3 3 1 3 3 4 nan nan nan nan nan nan nan nan nan 14 17 17 21 25 25 31 36 39 39 39 40 41 41 40 40 40 36 36 35 32 29 29 25 22 18 18 14 12 12 12 12 8 8 5
7 2 1 2 2 17 12 3 nan nan nan nan nan nan nan 0 2 2 0 0 0 nan nan 0 0 nan 1 16 5 5 4 3 2 2 2 3 3 3 2 3 3 2 nan nan nan nan nan nan nan nan nan 5 15 15 19 24 24 29 35 36 36 37 34 34 34 32 31 32 31 31 31 28 26 26 23 20 18 18 13 12 12 11 10 7 7 4
30 32 39 68 68 141 169 174 152 152 100 12 2 2 4 22 24 24 14 11 11 5 6 4 4 3 4 6 6 6 7 9 10 10 11 5 5 5 0 nan nan nan nan nan nan nan nan nan nan nan nan 0 16 16 18 21 21 24 28 29 29 29 25 28 28 27 26 28 26 26 26 24 22 22 19 17 16 16 13 10 10 9 8 6 6 5
92 103 131 153 153 156 149 132 131 131 153 119 41 41 22 12 8 8 7 3 3 4 1 0 0 1 1 1 1 1 3 8 8 8 11 7 4 4 nan nan nan nan nan nan nan nan 1 2 2 1 1 nan 3 3 11 14 14 18 20 22 22 18 21 23 23 23 24 21 20 20 21 19 20 20 18 15 13 13 12 9 9 8 7 5 5 7
65 77 88 99 99 108 114 121 127 127 135 137 145 145 71 7 1 1 3 2 2 0 0 0 0 0 0 1 1 1 1 2 nan nan 1 1 nan nan nan nan nan nan nan nan nan 1 14 8 8 0 nan nan nan nan 0 7 7 13 15 18 18 30 25 23 23 25 22 21 17 17 15 15 14 14 13 12 12 12 10 9 9 8 7 6 6 12
25 42 64 80 80 91 98 106 105 105 103 105 121 121 73 7 5 5 1 1 1 2 3 2 2 2 1 2 1 1 0 3 nan nan nan nan nan nan nan nan nan nan 1 7 7 14 3 nan nan nan nan nan nan nan nan 3 3 15 20 14 14 10 8 10 10 14 17 18 18 18 15 13 12 12 12 9 9 9 9 8 8 7 6 9 9 11
nan 12 36 58 58 72 68 38 62 62 87 95 106 106 84 18 7 7 2 nan nan nan nan 1 1 2 1 1 0 0 0 nan nan nan nan nan nan nan nan nan nan 3 10 7 7 nan nan nan nan nan nan nan nan nan nan nan nan 2 1 1 1 0 2 3 3 7 11 14 15 15 15 14 12 12 9 8 7 7 7 8 8 5 4 9 9 12
nan nan nan 2 2 10 1 nan 13 13 67 90 88 88 56 0 nan nan nan nan nan nan nan nan nan nan 0 nan nan nan nan nan nan nan nan 0 0 0 1 4 4 8 7 0 0 nan nan nan nan nan nan nan nan nan nan nan nan nan nan nan nan nan nan 0 0 1 3 8 12 12 14 15 13 13 10 7 4 4 5 6 6 5 4 7 7 13
nan nan nan nan nan nan nan nan nan nan nan nan nan nan 6 9 2 2 nan nan nan nan nan nan nan nan nan nan nan nan nan nan nan nan 0 nan nan nan nan nan nan nan 0 2 2 1 0 nan nan nan nan nan nan nan nan nan nan nan nan nan nan nan nan 1 1 2 2 2 3 3 8 10 12 12 11 7 3 3 3 3 3 6 6 3 3 2
nan nan nan nan nan nan nan nan nan nan nan nan nan nan nan nan 11 11 2 nan nan nan nan nan nan nan nan nan nan nan nan nan 2 2 7 nan nan nan nan 0 0 nan 0 2 2 3 0 0 0 0 nan nan nan nan nan nan nan nan nan nan nan nan nan nan nan 0 3 4 4 4 6 8 11 11 11 6 3 3 2 2 2 6 6 3 3 0
nan nan nan nan nan nan nan nan nan nan nan nan 1 1 0 nan 0 0 6 2 2 0 nan nan nan nan nan nan nan nan nan nan 5 5 8 nan 1 1 1 1 1 2 2 3 3 3 2 1 1 1 nan nan nan nan nan nan nan nan nan nan nan nan nan nan nan 3 4 7 11 11 11 11 11 11 12 8 4 4 2 2 2 5 6 2 2 nan
nan nan nan nan nan nan nan nan nan nan 1 0 1 1 1 0 nan nan 0 0 0 nan nan nan nan nan nan nan nan nan nan nan 0 0 9 1 1 1 1 2 2 3 3 2 2 2 1 2 2 3 1 nan nan nan nan nan nan nan nan nan nan nan nan nan nan nan 4 8 13 13 20 28 24 24 10 4 4 4 2 1 1 3 6 2 2 nan
nan nan nan nan nan nan nan nan 0 0 0 nan nan nan nan nan nan nan nan nan nan 1 5 nan nan nan nan nan nan nan nan nan nan nan 8 1 0 0 0 2 2 3 2 2 2 2 1 1 1 4 4 1 nan nan nan nan nan nan nan nan nan nan nan nan nan nan 1 4 12 12 32 74 30 30 4 2 3 3 1 1 1 2 5 3 3 nan
nan nan nan nan nan nan nan nan nan nan nan nan nan nan nan nan nan nan nan nan nan nan 0 7 7 5 13 nan nan nan nan nan nan nan 2 0 nan nan nan 1 1 3 1 0 0 1 1 0 0 1 1 0 nan nan nan nan nan nan nan nan nan nan nan nan nan nan nan 0 3 3 17 82 52 52 7 2 1 1 1 1 1 2 4 3 3 nan
nan nan nan nan nan nan nan nan nan nan nan nan nan nan nan nan nan nan nan nan nan nan nan nan nan nan 16 29 3 3 nan nan nan nan nan nan nan nan nan nan nan 1 2 1 1 0 0 0 0 nan nan nan 0 0 0 nan nan nan nan nan nan nan nan nan nan nan nan 0 1 1 6 41 86 86 19 0 nan nan nan nan nan 1 5 3 3 nan
nan nan nan nan nan nan nan nan nan nan nan nan nan nan nan nan nan nan nan nan nan nan nan nan nan nan nan nan 14 14 13 1 nan nan nan nan nan nan nan nan nan nan 0 0 0 0 nan nan nan nan nan nan nan nan nan 0 0 nan nan nan nan nan nan nan nan nan 2 6 6 6 8 33 103 103 40 1 nan nan nan nan nan nan 2 5 5 6
nan nan nan nan nan nan nan nan nan nan nan nan 4 4 0 0 nan nan nan nan nan nan nan nan nan nan nan 2 7 7 8 2 5 5 nan nan nan nan nan nan nan nan nan nan nan nan nan nan nan nan 1 nan nan nan nan nan nan nan 2 nan nan nan nan nan nan nan 0 2 3 3 4 19 74 74 58 10 nan nan nan nan nan nan 1 7 7 8
nan nan nan nan nan nan nan nan nan nan nan nan nan nan nan nan nan nan nan nan nan nan nan nan nan nan nan nan nan nan nan nan 3 3 nan nan nan nan nan nan nan nan nan nan nan nan 0 nan nan nan nan nan 0 0 1 0 0 3 5 1 1 nan nan nan nan nan nan nan nan nan 1 6 28 28 77 31 nan nan nan nan nan nan 0 5 5 3
nan nan nan nan nan nan nan nan nan nan nan nan nan nan nan nan nan nan nan nan nan nan nan nan nan nan nan nan nan nan nan nan nan nan nan nan nan nan nan nan nan nan nan nan nan nan 0 0 0 0 nan nan nan nan nan 0 0 3 5 2 2 1 0 nan nan nan nan nan nan nan 1 2 15 15 62 56 6 6 nan nan nan nan nan 1 1 1
nan nan nan nan nan nan nan nan nan nan nan nan nan nan nan nan nan nan nan nan nan 0 1 0 0 nan 0 nan nan nan nan nan nan nan nan nan nan nan nan nan nan nan nan nan nan nan 0 3 3 0 nan nan nan nan nan 0 0 1 2 4 4 3 0 nan nan nan nan 2 3 3 3 5 14 14 57 51 19 19 6 nan nan nan nan nan nan nan
nan nan nan nan nan nan nan nan nan nan nan nan nan nan nan nan 0 0 0 nan nan 0 0 nan nan nan nan nan nan nan nan nan nan nan nan nan nan nan nan nan nan nan nan nan nan nan nan 0 0 nan nan nan 0 0 nan nan nan 0 0 3 3 3 1 nan nan nan nan 0 1 1 6 12 26 26 82 55 29 29 23 2 2 nan nan nan nan nan
nan nan nan nan nan nan nan nan nan nan nan nan nan nan nan nan 1 1 nan nan nan 0 nan nan nan nan nan nan nan nan nan nan nan nan nan 2 19 19 1 nan nan nan nan nan nan nan nan nan nan nan nan nan 0 0 0 nan nan 0 2 4 4 4 1 nan nan nan nan nan nan nan 0 4 17 17 52 59 33 33 34 22 22 6 0 nan nan nan
nan nan nan nan nan nan nan nan nan nan nan nan nan nan nan nan nan nan nan nan nan nan nan nan nan nan nan nan nan nan nan nan nan nan nan nan nan nan 3 0 0 nan nan nan nan nan nan nan nan nan nan nan 1 1 0 0 0 0 0 3 3 3 1 0 0 nan nan nan nan nan nan 1 7 7 13 60 35 35 39 30 30 9 8 nan nan nan
nan nan nan nan nan nan nan nan nan nan nan nan nan nan nan nan nan nan nan nan nan nan nan nan nan nan nan nan nan nan nan nan nan nan nan nan nan nan nan 2 2 11 nan nan nan nan nan nan nan nan nan nan nan nan nan 1 1 0 0 2 2 2 2 0 0 nan nan nan 0 0 nan 1 4 4 12 46 35 35 49 43 43 12 7 2 2 nan
nan nan nan nan nan nan nan nan nan nan nan nan nan nan nan nan nan nan nan nan nan nan 0 nan nan nan nan nan nan nan nan nan nan nan nan nan nan nan nan nan nan 3 11 13 13 12 nan nan nan nan nan nan nan nan nan nan nan nan 0 2 2 2 0 nan nan 0 1 0 nan nan 0 2 3 3 10 31 42 42 41 56 56 19 11 5 5 nan
nan nan nan nan nan nan nan nan nan nan nan nan nan nan nan 0 14 14 nan nan nan nan nan nan nan nan nan nan nan nan 1 1 nan nan nan nan nan nan nan nan nan nan 1 6 6 9 9 8 8 3 0 0 0 0 nan nan nan 0 0 2 2 1 1 nan nan nan nan nan nan nan 1 2 4 4 12 40 48 48 45 50 50 27 19 8 8 1
nan nan nan nan nan nan nan nan nan nan nan nan nan nan nan nan nan nan nan nan nan nan nan nan nan nan nan nan nan nan nan nan nan nan nan nan nan nan nan nan nan nan 0 1 1 2 3 7 7 11 22 11 1 1 nan nan nan nan nan 1 1 1 1 0 0 0 nan nan 0 0 2 2 4 4 12 19 57 57 50 42 42 39 25 13 13 2
nan nan nan nan nan nan nan nan nan nan nan nan nan nan nan nan nan nan nan nan nan nan nan nan nan nan nan nan nan nan 1 nan nan nan nan nan nan nan nan nan nan nan 0 1 1 3 3 2 2 3 19 36 12 12 nan nan nan nan nan nan nan 1 0 1 1 0 0 1 1 1 3 3 3 3 7 14 40 40 49 42 42 47 33 20 20 3
CIN
nan nan nan nan nan nan nan nan nan nan nan nan nan nan nan nan nan nan nan nan nan nan nan nan nan nan nan -0 -0 -0 -0 -0 -0 -0 -0 -0 -0 -0 -0 -0 -0 -0 -0 -0 -0 -0 -0 -0 -0 -0 -0 -0 -0 -0 -0 -0 -0 -0 -0 -0 -0 -0 -0 -0 -0 -0 -0 -0 -0 -0 -0 -0 -0 -0 -0 -0 -0 -0 -0 -0 -0 -0 -0 -0 -0 -0
nan nan nan nan nan nan nan nan nan nan nan nan nan nan nan nan nan nan nan nan nan nan nan nan nan nan nan nan -0 -0 -0 -0 -0 -0 -0 -0 -0 -0 -0 -0 -0 -0 -0 -0 -0 -0 -0 -0 -0 -0 -0 -0 -0 -0 -0 -0 -0 -0 -0 -0 -0 -0 -0 -0 -0 -0 -0 -0 -0 -0 -0 -0 -0 -0 -0 -0 -0 -0 -0 -0 -0 -0 -0 -0 -0 -0
nan nan nan nan nan nan nan nan nan nan nan nan nan nan nan nan nan nan nan nan nan nan nan nan nan nan nan nan -0 -0 -0 -0 -0 -0 -0 -0 -0 -0 -0 -0 -0 -0 -0 -0 -0 -0 -0 -0 -0 -0 -0 -0 -0 -0 -0 -0 -0 -0 -0 -0 -0 -0 -0 -0 -0 -0 -0 -0 -0 -0 -0 -0 -0 -0 -0 -0 -0 -0 -0 -0 -0 -0 -0 -0 -0 -0
nan nan nan nan nan nan nan nan nan nan nan nan nan nan nan nan nan nan nan nan nan nan nan nan nan nan nan nan -0 -0 -0 -0 -0 -0 -0 -0 -0 -0 -0 -0 -0 -0 -0 -0 -0 -0 -0 -0 -0 -0 -0 -0 -0 -0 -0 -0 -0 -0 -0 -0 -0 -0 -0 -0 -0 -0 -0 -0 -0 -0 -0 -0 -0 -0 -0 -0 -0 -0 -0 -0 -0 -0 -0 -0 -0 -0
nan nan nan nan nan nan nan nan nan nan nan nan nan nan nan nan nan nan nan nan nan nan nan nan nan nan nan nan -0 -0 -0 -0 -0 -0 -0 -0 -0 -0 -0 -0 -0 -0 -0 -0 -0 -0 -0 -0 -0 -0 -0 -0 -0 -0 -0 -0 -0 -0 -0 -0 -0 -0 -0 -0 -0 -0 -0 -0 -0 -0 -0 -0 -0 -0 -0 -0 -0 -0 -0 -0 -0 -0 -0 -0 -0 -0
nan nan nan nan nan nan nan nan nan nan nan nan nan nan nan nan nan nan nan nan nan nan nan nan nan nan nan nan -0 -0 -0 -0 -0 -0 -0 -0 -0 -0 -0 -0 -0 -0 -0 -0 -0 -0 -0 -0 -0 -0 -0 -0 -0 -0 -0 -0 -0 -0 -0 -0 -0 -0 -0 -0 -0 -0 -0 -0 -0 -0 -0 -0 -0 -0 -0 -0 -0 -0 -0 -0 -0 -0 -0 -0 -0 -0
nan nan nan nan nan nan nan nan nan nan nan nan nan nan nan nan nan nan nan nan nan nan nan nan nan nan nan nan -0 -0 -0 -0 -0 -0 -0 -0 -0 -0 -0 -0 -0 -0 -0 -0 -0 -0 -0 -0 -0 -0 -0 -0 -0 -0 -0 -0 -0 -0 -0 -0 -0 -0 -0 -0 -0 -0 -0 -0 -0 -0 -0 -0 -0 -0 -0 -0 -0 -0 -0 -0 -0 -0 -0 -0 -0 -0
nan nan nan nan nan nan nan nan nan nan nan nan nan nan nan nan nan nan nan nan nan nan nan nan nan nan nan nan nan nan nan nan nan nan -0 -0 -0 -0 -0 -0 -0 -0 -0 -0 -0 -0 -0 -0 -0 -0 -0 -0 -0 -0 -0 -0 -0 -0 -0 -0 -0 -0 -0 -0 -0 -0 -0 -0 -0 -0 -0 -0 -0 -0 -0 -0 -0 -0 -0 -0 -0 -0 -0 -0 -0 -0
nan nan nan nan nan nan nan nan nan nan nan nan nan nan nan nan nan nan nan nan nan nan nan nan nan nan nan nan nan nan nan -0 nan nan nan nan nan nan -0 -0 -0 -0 -0 -0 -0 -0 -0 -0 -0 -0 -0 -0 -0 -0 -0 -0 -0 -0 -0 -0 -0 -0 -0 -0 -0 -0 -0 -0 -0 -0 -0 -0 -0 -0 -0 -0 -0 -0 -0 -0 -0 -0 -0 -0 -0 -0
nan nan nan nan nan nan nan nan nan nan nan nan nan nan nan nan nan nan nan nan nan nan nan nan nan nan nan nan nan nan nan -0 -0 -0 -0 -0 -0 -0 -0 -0 -0 -0 -0 -0 -0 -0 -0 -0 -0 -0 -0 -0 -0 -0 -0 -0 -0 -0 -0 -0 -0 -0 -0 -0 -0 -0 -0 -0 -0 -0 -0 -0 -0 -0 -0 -0 -0 -0 -0 -0 -0 -0 -0 -0 -0 -0
nan nan nan nan nan nan nan nan nan nan nan nan nan nan nan nan nan nan nan nan nan nan nan nan nan nan nan nan nan nan nan nan nan nan -0 -0 -0 -0 -0 -0 -0 -0 -0 -0 -0 -0 -0 -0 -0 -0 -0 -0 -0 -0 -0 -0 -0 -0 -0 -0 -0 -0 -0 -0 -0 -0 -0 -0 -0 -0 -0 -0 -0 -0 -0 -0 -0 -0 -0 -0 -0 -0 -0 -0 -0 -0
nan nan nan nan nan nan nan nan nan nan nan nan nan nan nan nan nan nan nan nan nan nan nan nan nan nan nan nan nan nan nan nan nan nan nan nan nan nan nan nan nan -0 -0 -0 -0 -0 -0 -0 -0 -0 -0 -0 -0 -0 -0 -0 -0 -0 -0 -0 -0 -0 -0 -0 -0 -0 -0 -0 -0 -0 -0 -0 -0 -0 -0 -0 -0 -0 -0 -0 -0 -0 -0 -0 -0 -0
nan nan nan nan nan nan nan nan nan nan nan nan nan nan nan nan nan nan nan nan nan nan nan nan nan nan nan nan nan nan nan nan nan nan nan nan nan nan nan nan nan nan nan nan nan nan -0 -0 -0 -0 -0 -0 -0 -0 -0 -0 -0 -0 -0 -0 -0 -0 -0 -0 -0 -0 -0 -0 -0 -0 -0 -0 -0 -0 -0 -0 -0 -0 -0 -0 -0 -0 -0 -0 -0 -0
nan nan nan nan nan nan nan nan nan nan nan nan nan nan nan nan nan nan nan nan nan nan nan nan nan nan nan nan nan nan nan nan nan nan nan nan nan nan nan nan nan nan nan nan nan nan nan -0 -0 nan -0 -0 -0 -0 -0 -0 -0 -0 -0 -0 -0 -0 -0 -0 -0 -0 -0 -0 -0 -0 -0 -0 -0 -0 -0 -0 -0 -0 -0 -0 -0 -0 -0 -0 -0 -0
nan nan nan nan nan nan nan nan nan nan nan nan nan nan nan nan nan nan -12 nan nan nan -12 nan nan nan nan nan nan nan nan nan nan nan nan nan nan nan nan nan nan nan nan nan nan nan nan nan nan nan nan nan nan nan -0 -0 -0 -0 -0 -0 -0 -0 -0 -0 -0 -0 -0 -0 -0 -0 -0 -0 -0 -0 -0 -0 -0 -0 -0 -0 -0 -0 -0 -0 -0 -0
nan nan nan nan nan -17 nan nan nan nan nan nan nan nan nan nan nan nan -12 -9 -9 -9 -7 -5 -5 nan nan nan nan nan nan nan nan nan nan nan nan nan nan nan nan nan nan nan nan nan nan nan nan nan nan -0 -0 -0 -0 -0 -0 -0 -0 -0 -0 -0 -0 -0 -0 -0 -0 -0 -0 -0 -0 -0 -0 -0 -0 -0 -0 -0 -0 -0 -0 -0 -0 -0 -0 -0
nan nan -12 -13 -13 -13 -20 -23 nan nan nan nan nan nan nan nan nan nan nan -9 -9 -7 -6 -4 -4 nan -1 nan nan nan nan nan nan nan nan nan nan nan nan nan nan nan nan nan nan nan nan nan nan nan nan -0 -0 -0 -0 -0 -0 -0 -0 -0 -0 -0 -0 -0 -0 -0 -0 -0 -0 -0 -0 -0 -0 -0 -0 -0 -0 -0 -0 -0 -0 -0 -0 -0 -0 -0
-20 -16 -12 -10 -10 -12 nan nan nan nan nan nan nan nan nan nan nan nan nan -11 -11 -7 nan nan nan nan nan -5 nan nan nan nan nan nan nan nan nan nan nan nan nan nan nan nan nan nan nan nan nan nan nan -0 -0 -0 -0 -0 -0 -0 -0 -0 -0 -0 -0 -0 -0 -0 -0 -0 -0 -0 -0 -0 -0 -0 -0 -0 -0 -0 -0 -0 -0 -0 -0 -0 -0 -0
-13 nan nan nan nan nan nan nan nan nan nan nan nan nan nan nan nan nan nan nan nan nan nan nan nan nan -2 -2 nan nan nan nan nan nan nan -2 nan nan nan -9 -9 -4 nan nan nan nan nan nan nan -4 -0 -0 -0 -0 -0 -0 -0 -0 -0 -0 -0 -0 -0 -0 -0 -0 -0 -0 -0 -0 -0 -0 -0 -0 -0 -0 -0 -0 -0 -0 -0 -0 -0 -0 -0 -0
-9 -8 nan nan nan nan nan nan nan nan nan nan nan nan nan nan nan nan nan nan nan nan nan nan nan nan -3 -4 nan nan nan nan -9 -9 -4 -2 nan nan nan -8 -8 -0 nan nan nan nan nan nan nan nan -0 -0 -0 -0 -0 -0 -0 -0 -0 -0 -0 -0 -0 -0 -0 -0 -0 -0 -0 -0 -0 -0 -0 -0 -0 -0 -0 -0 -0 -0 -0 -0 -0 -0 -0 -0
nan nan nan nan nan nan nan nan nan nan -3 -4 nan nan nan -12 -10 -10 -12 nan nan nan nan nan nan nan nan -7 -13 -13 nan -16 -4 -4 -3 -2 nan nan nan -8 -8 -3 nan nan nan nan nan nan nan nan -0 -0 -0 -0 -0 -0 -0 -0 -0 -0 -0 -0 -0 -0 -0 -0 -0 -0 -0 -0 -0 -0 -0 -0 -0 -0 -0 -0 -0 -0 -0 -0 -0 -0 -0 -0
nan nan nan nan nan nan nan nan -3 -3 -0 -2 -4 -4 -3 -6 -7 -7 nan nan nan nan nan nan nan nan nan -10 -25 -25 nan -16 -6 -6 -4 -2 nan nan nan -6 -6 -4 nan nan nan nan nan nan nan nan -0 -0 -0 -0 -0 -0 -0 -0 -0 -0 -0 -0 -0 -0 -0 -0 -0 -0 -0 -0 -0 -0 -0 -0 -0 -0 -0 -0 -0 -0 -0 -0 -0 -0 -0 -0
nan nan nan nan nan nan -10 -12 -9 -9 -5 nan -4 -4 nan nan nan nan nan nan nan nan nan nan nan nan nan nan nan nan nan nan -10 -10 -4 -1 nan nan nan -6 -6 -2 nan nan nan nan nan nan nan nan -0 -0 -0 -0 -0 -0 -0 -0 -0 -0 -0 -0 -0 -0 -0 -0 -0 -0 -0 -0 -0 -0 -0 -0 -0 -0 -0 -0 -0 -0 -0 -0 -0 -0 -0 -0
-31 -26 -19 -19 -19 nan nan nan nan nan nan nan nan nan nan nan nan nan nan nan nan nan nan nan nan nan nan -8 nan nan nan nan -13 -13 -4 -0 -1 -1 -7 -5 -5 -0 nan nan nan nan nan nan nan nan nan -0 -0 -0 -0 -0 -0 -0 -0 -0 -0 -0 -0 -0 -0 -0 -0 -0 -0 -0 -0 -0 -0 -0 -0 -0 -0 -0 -0 -0 -0 -0 -0 -0 -0 -0
-21 -20 -16 -16 -16 -6 -11 -32 nan nan nan nan nan nan nan -0 -0 -0 -17 -27 -27 nan nan -13 -13 nan -5 -0 -3 -3 -6 -13 -7 -7 -0 -1 -2 -2 -7 -4 -4 -1 nan nan nan nan nan nan nan nan nan -0 -0 -0 -0 -0 -0 -0 -0 -0 -0 -0 -0 -0 -0 -0 -0 -0 -0 -0 -0 -0 -0 -0 -0 -0 -0 -0 -0 -0 -0 -0 -0 -0 -0 -0
-1 -2 -1 -0 -0 -0 -0 -0 -0 -0 -0 -3 -8 -8 -7 -1 -1 -1 -4 -3 -3 -5 -2 -3 -3 -3 -3 -3 -3 -3 -7 -19 -6 -6 -1 -1 -1 -1 -15 nan nan nan nan nan nan nan nan nan nan nan nan -8 -0 -0 -0 -0 -0 -0 -0 -0 -0 -0 -0 -0 -0 -0 -0 -0 -0 -0 -0 -0 -0 -0 -0 -0 -0 -0 -0 -0 -0 -0 -0 -0 -0 -0
-0 -0 -0 -0 -0 -0 -0 -0 -0 -0 -0 -0 -0 -0 -2 -4 -3 -3 -2 -4 -4 -3 -3 -2 -2 -3 -2 -3 -4 -4 -6 -10 -14 -14 -6 -1 -1 -1 nan nan nan nan nan nan nan nan -0 -0 -0 -2 -9 nan -0 -0 -0 -0 -0 -0 -0 -0 -0 -0 -0 -0 -0 -0 -0 -0 -0 -0 -0 -0 -0 -0 -0 -0 -0 -0 -0 -0 -0 -0 -0 -0 -0 -0
-0 -0 -0 -0 -0 -0 -0 -0 -0 -0 -0 -0 -0 -0 -0 -5 -6 -6 -3 -6 -6 -8 -5 -3 -3 -4 -2 -3 -4 -4 -8 -12 nan nan -26 -8 nan nan nan nan nan nan nan nan nan -0 -0 -0 -0 -11 nan nan nan nan -0 -0 -0 -0 -0 -0 -0 -0 -0 -0 -0 -0 -0 -0 -0 -0 -0 -0 -0 -0 -0 -0 -0 -0 -0 -0 -0 -0 -0 -1 -1 -1
-0 -0 -0 -0 -0 -0 -0 -0 -0 -0 -0 -0 -0 -0 -0 -6 -3 -3 -7 -10 -10 -7 -3 -1 -1 -1 -2 -3 -5 -5 -8 -2 nan nan nan nan nan nan nan nan nan nan -0 -0 -0 -0 -3 nan nan nan nan nan nan nan nan -0 -0 -0 -0 -0 -0 -0 -0 -0 -0 -0 -0 -0 -0 -0 -0 -0 -0 -0 -0 -0 -0 -0 -0 -0 -0 -0 -0 -1 -1 -1
nan -0 -0 -0 -0 -0 -0 -0 -0 -0 -0 -0 -0 -0 -0 -1 -2 -2 -3 nan nan nan nan -0 -0 -0 -2 -3 -4 -4 -2 nan nan nan nan nan nan nan nan nan nan -0 -0 -0 -0 nan nan nan nan nan nan nan nan nan nan nan nan -2 -0 -0 -0 -0 -0 -0 -0 -0 -0 -0 -0 -0 -0 -0 -0 -0 -0 -0 -0 -0 -0 -0 -0 -0 -2 -1 -1 -1
nan nan nan -0 -0 -0 -2 nan -0 -0 -0 -0 -0 -0 -0 -6 nan nan nan nan nan nan nan nan nan nan -2 nan nan nan nan nan nan nan nan -1 -0 -0 -0 -0 -0 -2 -1 -0 -0 nan nan nan nan nan nan nan nan nan nan nan nan nan nan nan nan nan nan -0 -0 -0 -0 -0 -0 -0 -0 -0 -0 -0 -0 -0 -0 -0 -0 -0 -0 -0 -2 -1 -1 -1
nan nan nan nan nan nan nan nan nan nan nan nan nan nan -0 -0 -0 -0 nan nan nan nan nan nan nan nan nan nan nan nan nan nan nan nan -21 nan nan nan nan nan nan nan -3 -3 -3 -1 -0 nan nan nan nan nan nan nan nan nan nan nan nan nan nan nan nan -0 -0 -0 -0 -0 -0 -0 -0 -0 -0 -0 -0 -0 -0 -0 -0 -0 -0 -0 -2 -2 -2 -2
nan nan nan nan nan nan nan nan nan nan nan nan nan nan nan nan -0 -0 -0 nan nan nan nan nan nan nan nan nan nan nan nan nan -0 -0 -0 nan nan nan nan -2 -2 nan -4 -1 -1 -2 -0 -0 -0 -1 nan nan nan nan nan nan nan nan nan nan nan nan nan nan nan -2 -0 -0 -0 -0 -0 -0 -0 -0 -0 -0 -0 -0 -0 -0 -0 -0 -1 -3 -3 -4
nan nan nan nan nan nan nan nan nan nan nan nan -3 -3 -5 nan -3 -3 -0 -1 -1 -2 nan nan nan nan nan nan nan nan nan nan -0 -0 -0 nan -1 -1 -1 -1 -1 -1 -1 -0 -0 -0 -0 -0 -0 -0 nan nan nan nan nan nan nan nan nan nan nan nan nan nan nan -0 -0 -0 -0 -0 -0 -0 -0 -0 -0 -0 -0 -0 -0 -0 -0 -0 -0 -4 -4 nan
nan nan nan nan nan nan nan nan nan nan -5 -6 -4 -4 -3 -4 nan nan -2 -1 -1 nan nan nan nan nan nan nan nan nan nan nan -8 -8 -0 -2 -1 -1 -0 -0 -0 -0 -0 -1 -1 -0 -0 -0 -0 -0 -0 nan nan nan nan nan nan nan nan nan nan nan nan nan nan nan -0 -0 -0 -0 -0 -0 -1 -1 -1 -0 -0 -0 -0 -0 -0 -0 -0 -4 -4 nan
nan nan nan nan nan nan nan nan -3 -3 -4 nan nan nan nan nan nan nan nan nan nan -0 -0 nan nan nan nan nan nan nan nan nan nan nan -0 -2 -2 -2 -1 -0 -0 -1 -1 -0 -0 -0 -0 -0 -0 -0 -0 -0 nan nan nan nan nan nan nan nan nan nan nan nan nan nan -3 -0 -0 -0 -0 -0 -1 -1 -2 -0 -0 -0 -0 -0 -0 -0 -0 -3 -3 nan
nan nan nan nan nan nan nan nan nan nan nan nan nan nan nan nan nan nan nan nan nan nan -1 -0 -0 -0 -0 nan nan nan nan nan nan nan -2 -6 nan nan nan -1 -1 -0 -0 -0 -0 -0 -0 -0 -0 -0 -0 -0 nan nan nan nan nan nan nan nan nan nan nan nan nan nan nan -1 -0 -0 -0 -0 -1 -1 -3 -1 -0 -0 -0 -0 -0 -0 -0 -2 -2 nan
nan nan nan nan nan nan nan nan nan nan nan nan nan nan nan nan nan nan nan nan nan nan nan nan nan nan -0 -0 -2 -2 nan nan nan nan nan nan nan nan nan nan nan -0 -0 -1 -1 -0 -0 -0 -0 nan nan nan -0 -0 -1 nan nan nan nan nan nan nan nan nan nan nan nan -1 -0 -0 -0 -0 -1 -1 -3 -54 nan nan nan nan nan -1 -0 -2 -2 nan
nan nan nan nan nan nan nan nan nan nan nan nan nan nan nan nan nan nan nan nan nan nan nan nan nan nan nan nan -0 -0 -0 -2 nan nan nan nan nan nan nan nan nan nan -3 -3 -3 -2 nan nan nan nan nan nan nan nan nan -3 -3 nan nan nan nan nan nan nan nan nan -1 -0 -0 -0 -0 -0 -0 -0 -2 -44 nan nan nan nan nan nan -2 -1 -1 -2
nan nan nan nan nan nan nan nan nan nan nan nan -0 -0 -1 -2 nan nan nan nan nan nan nan nan nan nan nan -0 -0 -0 -0 -2 -1 -1 nan nan nan nan nan nan nan nan nan nan nan nan nan nan nan nan -0 nan nan nan nan nan nan nan -0 nan nan nan nan nan nan nan -3 -1 -0 -0 -0 -0 -0 -0 -1 -4 nan nan nan nan nan nan -3 -1 -1 -1
nan nan nan nan nan nan nan nan nan nan nan nan nan nan nan nan nan nan nan nan nan nan nan nan nan nan nan nan nan nan nan nan -1 -1 nan nan nan nan nan nan nan nan nan nan nan nan -1 nan nan nan nan nan -0 -0 -0 -3 -3 -0 -0 -0 -0 nan nan nan nan nan nan nan nan nan -0 -0 -0 -0 -0 -3 nan nan nan nan nan nan -6 -3 -3 -4
nan nan nan nan nan nan nan nan nan nan nan nan nan nan nan nan nan nan nan nan nan nan nan nan nan nan nan nan nan nan nan nan nan nan nan nan nan nan nan nan nan nan nan nan nan nan -1 -0 -0 -0 nan nan nan nan nan -1 -1 -0 -0 -0 -0 -2 -3 nan nan nan nan nan nan nan -0 -0 -0 -0 -0 -2 -7 -7 nan nan nan nan nan -5 -5 -7
nan nan nan nan nan nan nan nan nan nan nan nan nan nan nan nan nan nan nan nan nan -2 -1 -2 -2 nan -1 nan nan nan nan nan nan nan nan nan nan nan nan nan nan nan nan nan nan nan -1 -0 -0 -1 nan nan nan nan nan -2 -2 -1 -0 -0 -0 -0 -0 nan nan nan nan -0 -0 -0 -0 -0 -0 -0 -0 -2 -7 -7 -7 nan nan nan nan nan nan nan
nan nan nan nan nan nan nan nan nan nan nan nan nan nan nan nan -0 -0 -0 nan nan -1 -1 nan nan nan nan nan nan nan nan nan nan nan nan nan nan nan nan nan nan nan nan nan nan nan nan -0 -0 nan nan nan -2 -2 nan nan nan -3 -3 -1 -1 -0 -0 nan nan nan nan -1 -1 -1 -0 -0 -0 -0 -0 -1 -6 -6 -4 -7 -7 nan nan nan nan nan
nan nan nan nan nan nan nan nan nan nan nan nan nan nan nan nan -0 -0 nan nan nan -2 nan nan nan nan nan nan nan nan nan nan nan nan nan -2 -0 -0 -1 nan nan nan nan nan nan nan nan nan nan nan nan nan -1 -1 -1 nan nan -2 -1 -0 -0 -0 -2 nan nan nan nan nan nan nan -1 -0 -0 -0 -0 -0 -3 -3 -3 -3 -3 -6 -12 nan nan nan
nan nan nan nan nan nan nan nan nan nan nan nan nan nan nan nan nan nan nan nan nan nan nan nan nan nan nan nan nan nan nan nan nan nan nan nan nan nan -3 -1 -1 nan nan nan nan nan nan nan nan nan nan nan -2 -2 -2 -2 -2 -3 -2 -0 -0 -2 -5 -6 -6 nan nan nan nan nan nan -0 -0 -0 -0 -0 -1 -1 -4 -4 -4 -7 -6 nan nan nan
nan nan nan nan nan nan nan nan nan nan nan nan nan nan nan nan nan nan nan nan nan nan nan nan nan nan nan nan nan nan nan nan nan nan nan nan nan nan nan -3 -3 -0 nan nan nan nan nan nan nan nan nan nan nan nan nan -3 -3 -2 -3 -2 -2 -2 -2 -3 -3 nan nan nan -2 -2 nan -0 -0 -0 -0 -0 -1 -1 -2 -5 -5 -9 -8 -10 -10 nan
nan nan nan nan nan nan nan nan nan nan nan nan nan nan nan nan nan nan nan nan nan nan -0 nan nan nan nan nan nan nan nan nan nan nan nan nan nan nan nan nan nan -4 -1 -0 -0 -0 nan nan nan nan nan nan nan nan nan nan nan nan -4 -3 -3 -3 -3 nan nan -5 -6 -3 nan nan -1 -0 -0 -0 -0 -0 -1 -1 -1 -3 -3 -8 -9 -10 -10 nan
nan nan nan nan nan nan nan nan nan nan nan nan nan nan nan -0 -0 -0 nan nan nan nan nan nan nan nan nan nan nan nan -0 -0 nan nan nan nan nan nan nan nan nan nan -4 -1 -1 -1 -1 -1 -1 -1 -4 -3 -2 -2 nan nan nan -6 -6 -4 -4 -3 -3 nan nan nan nan nan nan nan -1 -1 -0 -0 -0 -0 -1 -1 -1 -3 -3 -6 -7 -9 -9 -13
nan nan nan nan nan nan nan nan nan nan nan nan nan nan nan nan nan nan nan nan nan nan nan nan nan nan nan nan nan nan nan nan nan nan nan nan nan nan nan nan nan nan -2 -2 -2 -1 -1 -0 -0 -0 -0 -0 -2 -2 nan nan nan nan nan -5 -5 -4 -3 -3 -3 -5 nan nan -4 -4 -1 -1 -0 -0 -0 -0 -0 -0 -1 -2 -2 -3 -5 -8 -8 -14
nan nan nan nan nan nan nan nan nan nan nan nan nan nan nan nan nan nan nan nan nan nan nan nan nan nan nan nan nan nan -0 nan nan nan nan nan nan nan nan nan nan nan -1 -1 -1 -1 -0 -1 -1 -1 -0 -0 -0 -0 nan nan nan nan nan nan nan -5 -5 -4 -4 -5 -6 -4 -3 -3 -1 -1 -0 -0 -0 -0 -0 -0 -1 -1 -1 -2 -4 -6 -6 -16
Wind_Speed
9 9 10 11 10 9 11 13 13 12 12 11 11 10 10 11 11 12 14 14 12 11 10 11 11 13 15 20 24 27 29 30 30 30 29 29 28 28 27 26 25 24 23 23 23 22 22 23 23 23 23 22 22 22 22 21 20 18 17 16 16 15 15 15 15 15 15 15 14 14 13 12 12 11 12 12 13 14 16 17 18 18 18 16 14 13
9 9 9 11 11 11 12 13 13 12 11 12 11 11 11 11 10 10 10 11 11 10 9 10 11 12 13 16 21 25 27 28 29 29 29 28 28 28 27 27 26 25 24 23 22 22 22 22 22 23 22 22 22 21 22 21 19 18 17 17 17 16 16 16 15 15 15 15 15 14 14 13 13 12 12 13 14 15 16 17 18 18 18 16 15 13
9 9 9 9 10 11 11 12 12 11 11 12 12 12 12 12 11 9 9 9 9 9 9 9 10 11 13 14 19 23 26 27 28 28 28 28 28 27 27 27 26 25 24 23 23 22 22 22 22 22 22 22 21 21 21 20 19 18 17 17 17 17 17 16 16 16 16 15 15 15 14 14 13 13 13 13 14 15 15 16 17 18 18 17 15 14
10 10 10 9 9 10 11 12 11 11 11 11 12 13 12 11 9 9 8 8 8 8 8 9 10 10 11 12 15 20 24 26 27 27 27 27 27 27 27 27 26 25 24 23 22 22 22 21 22 22 22 21 21 20 20 19 18 17 17 17 17 17 17 17 16 16 16 16 15 15 15 14 14 13 13 13 14 15 15 16 17 18 18 17 16 15
10 10 10 9 9 10 11 11 10 10 10 11 11 11 11 9 8 7 7 7 7 8 8 9 9 10 10 10 13 18 23 25 26 27 27 27 27 27 27 26 26 25 24 23 22 22 22 21 21 21 21 21 20 20 19 18 17 17 16 17 17 17 17 17 17 16 16 16 16 15 15 15 14 14 13 13 14 14 15 15 16 17 18 18 17 15
10 10 9 9 9 9 9 9 9 9 9 9 10 10 9 7 6 6 6 7 7 7 8 8 8 9 9 10 14 18 22 24 25 25 26 26 26 26 26 25 25 24 24 23 22 22 21 21 21 21 21 20 20 20 19 18 17 17 17 17 17 17 17 17 17 17 16 16 16 15 15 15 14 14 13 13 14 14 14 15 16 17 18 18 17 16
10 9 9 9 9 9 9 9 9 9 8 8 8 8 7 6 6 6 6 6 6 7 7 8 8 8 9 11 13 16 18 20 22 23 24 24 25 24 24 24 24 24 23 23 22 21 21 20 20 20 20 20 20 20 20 19 18 18 17 17 17 17 17 17 17 16 16 16 15 15 15 15 15 14 14 14 13 14 14 14 15 16 18 18 17 16
11 10 10 10 10 9 9 8 8 8 8 8 8 7 7 6 5 6 6 6 6 6 6 7 8 8 7 8 10 11 12 13 15 16 18 19 20 21 22 22 23 23 23 22 22 21 20 20 20 20 20 21 21 21 20 20 19 18 18 18 18 18 18 17 17 16 16 16 15 15 15 15 15 15 14 14 14 14 14 14 15 16 17 18 18 16
12 12 11 11 10 10 9 8 8 8 8 7 7 7 7 6 6 6 6 6 6 5 5 6 7 7 7 6 6 7 9 10 11 11 13 13 14 16 18 20 21 21 22 21 21 20 20 20 20 20 20 21 21 21 21 20 20 19 19 18 18 18 18 18 17 17 16 16 16 16 16 16 16 16 15 15 14 14 14 14 14 15 17 18 18 17
12 12 12 11 10 9 9 9 8 7 6 6 6 6 6 7 7 7 7 7 6 5 5 6 7 7 7 6 5 5 8 11 13 15 17 16 17 18 19 18 18 18 20 20 20 20 20 20 20 20 21 21 21 21 21 21 20 20 20 19 19 19 18 18 18 17 17 17 17 16 16 16 16 16 16 16 15 15 14 14 14 15 16 17 18 17
11 11 10 9 8 7 7 7 6 5 4 5 5 5 6 6 7 8 9 8 7 6 6 6 6 7 7 6 5 5 7 8 10 13 15 17 19 20 19 18 18 17 19 19 19 20 20 20 21 21 21 21 21 20 20 20 20 20 20 20 19 19 19 19 19 18 18 18 18 17 17 17 17 17 17 17 16 15 15 14 14 15 16 17 17 17
10 9 8 7 7 6 5 5 5 4 4 5 5 6 6 6 6 6 8 8 8 8 7 7 6 6 6 6 5 6 6 6 7 8 9 10 12 13 13 13 13 14 15 15 16 17 19 20 20 20 20 20 20 20 19 19 20 20 20 20 20 20 20 20 19 19 19 19 19 19 18 18 18 18 18 17 17 16 15 15 15 15 15 16 17 16
8 7 6 6 6 5 4 4 4 4 4 5 6 7 6 5 5 5 6 8 8 8 8 7 7 6 6 5 5 4 5 6 6 7 7 7 6 7 7 7 7 8 8 9 10 11 15 17 18 18 18 18 18 19 19 19 19 19 20 20 20 20 20 20 20 20 20 20 20 19 19 19 19 19 19 18 18 17 16 16 15 15 16 16 16 16
6 5 5 6 6 5 5 6 6 6 6 6 6 6 6 5 5 5 6 7 7 7 7 8 8 6 5 5 4 4 5 5 6 6 6 6 5 4 4 5 6 6 6 6 6 8 11 12 12 13 16 16 17 18 18 18 19 19 19 20 20 20 20 21 21 21 21 21 20 20 20 19 19 19 19 19 18 18 17 17 16 16 16 16 16 16
5 6 8 8 8 8 7 7 7 7 6 6 5 4 5 5 5 6 7 7 7 7 7 8 8 7 5 5 4 4 5 5 5 5 6 5 4 4 4 5 5 6 5 6 6 8 10 9 8 9 10 13 15 16 17 17 18 19 19 19 20 20 21 21 21 21 21 21 21 21 20 20 20 19 19 19 19 19 18 18 17 17 16 16 16 16
7 8 9 10 9 9 8 7 7 7 6 5 5 4 5 6 6 6 7 8 8 7 7 8 8 7 6 4 4 4 4 4 5 5 6 5 4 4 4 4 5 6 6 6 6 6 6 6 7 7 9 13 16 18 19 19 19 19 19 19 20 20 20 21 21 21 22 22 22 21 21 20 20 20 20 20 19 19 19 19 18 17 16 16 16 16
7 8 9 9 9 9 7 6 6 6 5 5 5 5 5 6 6 6 7 7 7 6 6 6 7 6 5 4 3 3 3 3 4 5 6 6 5 4 4 4 5 6 6 6 7 6 6 6 6 7 8 13 16 19 20 19 19 19 19 20 20 20 21 21 21 22 22 22 22 22 21 21 20 20 20 20 20 20 20 19 19 18 17 16 16 15
8 8 8 9 9 9 8 7 6 5 5 5 6 6 6 6 7 7 8 7 7 6 6 6 6 5 5 4 3 3 3 3 4 5 7 7 6 4 3 4 6 7 7 7 7 6 6 6 6 7 9 15 18 19 20 20 19 20 20 20 20 20 21 21 22 22 22 23 22 22 22 21 20 20 20 20 20 20 20 20 19 18 17 16 15 15
9 9 9 9 9 9 8 7 6 5 5 5 6 6 6 7 8 8 8 8 7 7 7 7 7 6 6 5 4 3 3 3 5 6 8 8 7 5 4 5 6 8 7 7 7 7 6 6 8 11 15 17 19 20 20 20 20 20 20 20 20 20 21 21 21 22 22 23 23 22 22 21 21 20 20 20 20 20 20 20 19 18 17 16 16 15
10 9 9 9 9 9 9 7 6 5 5 6 6 7 8 8 8 8 8 7 7 7 7 7 7 7 6 6 5 4 3 4 5 6 7 8 7 6 4 5 7 8 8 7 6 6 6 6 7 10 15 17 19 20 20 20 20 20 20 20 20 20 21 21 21 21 22 22 22 22 22 21 21 20 20 20 20 20 20 20 19 18 17 16 16 15
10 10 10 8 8 8 8 7 6 6 8 8 8 8 8 8 8 8 7 7 7 7 7 7 7 7 5 6 5 4 3 3 4 5 5 6 7 6 5 5 7 8 8 7 6 5 5 5 6 7 11 15 18 20 21 21 21 21 21 21 21 21 21 20 20 21 21 21 21 21 21 21 21 20 20 20 20 20 20 20 19 19 18 17 16 15
10 11 10 9 8 8 8 8 9 9 10 10 9 8 8 8 8 7 7 7 7 7 7 7 7 6 6 6 5 4 3 3 5 5 5 7 7 7 5 5 6 7 8 6 5 4 4 5 5 7 11 16 19 20 21 21 21 21 21 21 21 21 21 21 21 20 20 21 21 21 21 21 21 20 20 20 20 20 20 20 19 19 18 17 16 16
10 10 10 9 8 8 8 8 9 9 10 11 11 10 8 8 8 8 8 7 7 7 8 7 7 7 6 6 6 5 4 5 5 6 6 7 8 6 4 4 5 6 7 5 5 4 4 5 6 8 11 16 19 20 21 21 21 21 21 21 21 21 21 21 21 21 21 21 21 21 21 21 21 20 20 20 20 20 20 20 19 19 18 17 16 16
8 8 8 7 8 8 8 9 9 9 9 10 9 8 7 7 7 7 7 7 7 7 7 7 7 7 7 7 7 6 6 6 6 6 5 6 6 6 4 4 5 7 7 5 5 4 5 6 6 7 9 14 18 20 21 21 21 21 21 21 21 21 21 21 21 21 21 21 21 21 21 21 21 21 21 20 20 20 20 20 19 19 18 17 17 16
9 10 10 11 12 13 12 12 11 11 9 7 5 4 4 6 6 7 6 6 6 6 6 6 7 7 6 6 6 5 5 5 5 5 5 5 6 5 4 4 5 6 7 5 5 5 6 7 7 7 8 11 15 18 20 21 21 21 21 21 21 21 21 21 21 21 21 21 21 21 21 21 21 21 21 21 20 20 20 20 19 19 18 18 17 16
15 15 16 18 20 22 23 23 22 20 19 15 11 8 7 6 6 5 5 5 5 5 6 6 7 7 6 5 5 4 3 3 4 5 4 4 5 5 4 3 4 5 6 6 5 6 8 8 8 7 7 8 12 16 18 20 21 21 21 21 21 21 21 21 21 21 21 21 22 22 22 22 22 22 21 21 21 21 20 20 19 19 18 17 16 16
21 22 24 25 26 26 25 25 24 24 24 21 17 14 11 8 7 6 6 5 5 5 6 7 7 7 6 6 5 4 4 3 3 3 3 4 4 5 4 3 4 5 7 6 7 7 9 8 8 7 6 6 8 12 16 18 20 20 21 20 20 20 20 19 20 20 21 21 22 22 22 22 22 22 22 22 21 21 21 20 20 19 18 16 14 13
21 22 23 23 23 23 23 22 22 21 21 21 21 19 14 9 7 7 6 5 5 5 6 7 7 7 6 6 5 4 4 4 3 2 2 3 4 5 4 4 4 5 6 6 7 7 8 7 7 6 5 6 7 9 13 16 17 18 18 17 16 16 16 16 17 18 19 20 20 21 22 22 22 22 22 22 22 21 21 21 20 18 16 13 10 8
18 19 20 21 21 21 21 20 19 19 20 20 20 18 13 8 7 6 5 4 4 5 6 6 6 6 6 6 5 5 5 4 4 3 3 4 4 5 4 4 4 5 5 5 5 5 5 5 5 5 5 7 7 7 8 10 12 12 12 13 13 13 14 14 15 16 17 18 19 20 21 21 22 22 22 22 22 22 22 21 20 17 12 10 8 7
12 14 14 15 16 16 15 14 14 15 17 18 18 16 12 8 6 5 5 4 5 5 6 7 7 6 6 6 6 5 5 4 3 3 3 4 4 4 4 4 4 4 3 3 4 4 4 4 3 4 4 6 5 5 4 5 6 6 7 9 11 12 13 14 14 15 16 16 18 19 20 21 21 22 22 22 22 22 22 22 19 14 9 8 7 7
10 11 10 10 10 9 9 9 10 11 13 14 15 13 10 7 5 5 5 5 5 5 6 6 7 6 6 5 5 4 3 2 2 2 2 3 3 4 4 4 4 3 2 3 3 4 4 3 2 2 2 3 3 4 4 4 4 5 5 6 7 9 12 13 13 14 14 15 16 18 19 20 21 21 22 22 22 23 22 22 19 14 8 8 7 7
10 9 9 8 8 7 7 7 7 7 8 9 9 9 8 8 7 6 5 5 5 5 6 6 6 6 6 6 6 5 4 2 2 3 2 2 3 3 3 4 4 4 3 3 3 4 4 4 3 2 2 3 3 4 4 5 5 5 5 5 6 7 10 11 11 11 11 13 15 16 18 19 20 21 22 22 22 23 23 23 20 15 9 8 8 8
9 9 8 8 7 7 6 6 6 6 6 6 6 6 7 7 7 7 6 6 5 6 6 6 6 6 6 7 7 6 5 4 4 5 5 4 3 3 3 4 4 4 4 4 4 5 5 5 5 4 4 4 4 4 4 5 5 5 5 5 5 6 7 8 8 8 9 10 11 13 16 18 19 21 22 22 23 23 23 23 21 17 12 9 8 8
9 9 9 8 7 7 7 6 6 6 6 6 6 6 6 6 6 7 7 6 6 6 6 6 6 6 6 7 7 7 6 5 6 7 8 5 4 4 4 4 5 4 4 4 4 5 5 6 6 5 5 4 4 4 3 4 4 5 4 5 5 5 5 5 5 6 7 7 8 9 11 13 15 18 19 21 21 22 23 23 22 21 17 12 9 7
9 9 9 8 7 7 7 7 7 7 6 6 6 6 6 6 6 6 6 6 6 6 6 6 7 7 7 7 7 7 6 5 6 8 8 7 5 4 4 5 4 4 4 4 4 4 4 6 7 7 6 5 5 4 3 3 4 4 4 4 4 4 4 4 4 5 6 7 7 7 7 8 10 12 14 16 18 20 22 23 23 22 21 16 12 9
8 9 8 8 8 7 7 7 7 7 7 6 6 6 6 6 6 6 6 6 7 7 7 7 7 7 7 7 8 8 7 5 6 8 9 7 6 5 4 4 5 5 5 5 5 5 5 6 7 7 7 7 6 4 3 3 3 3 3 3 4 4 4 4 4 4 5 6 7 7 7 6 7 8 9 13 16 19 21 22 23 23 22 20 16 13
8 8 8 8 7 7 7 7 7 7 6 6 6 6 6 6 6 6 6 6 7 7 8 8 8 8 9 8 8 8 8 7 7 8 9 8 7 6 5 5 5 6 6 6 6 6 6 6 7 7 7 7 5 4 3 3 2 3 3 3 4 4 4 4 4 4 5 6 7 8 8 7 6 7 7 11 14 16 19 21 22 23 23 21 19 16
8 8 8 7 7 7 7 7 7 7 7 6 6 7 7 7 7 7 7 7 7 8 8 8 8 9 12 12 12 11 10 10 9 10 10 9 8 7 7 6 7 7 7 6 6 6 6 7 7 7 6 6 6 6 5 4 4 4 4 4 4 4 5 5 5 5 5 6 7 8 9 8 6 6 7 8 9 10 11 13 16 18 21 20 19 18
8 8 8 8 8 7 7 7 7 7 7 7 7 7 7 8 8 8 7 7 7 8 8 8 8 8 11 13 14 14 14 13 12 12 12 11 9 9 8 8 8 7 7 7 7 7 7 7 7 7 6 6 6 6 5 5 4 4 4 5 5 5 5 4 5 5 6 6 7 8 8 8 7 6 6 6 7 7 8 9 10 12 14 14 14 15
8 8 8 8 8 7 7 8 8 8 7 8 8 8 8 8 7 7 7 7 7 8 8 9 8 8 9 10 12 13 13 12 12 12 12 11 10 9 8 8 8 8 7 7 7 7 7 8 8 8 8 7 6 6 5 5 4 5 6 5 5 4 4 3 4 4 5 5 6 7 7 7 6 6 6 7 8 8 8 8 8 10 11 11 10 10
8 8 8 8 8 8 8 8 8 8 8 7 7 7 7 6 6 6 6 7 7 7 7 7 7 7 8 8 9 10 11 12 12 12 11 11 11 10 9 8 8 8 7 7 7 7 8 8 9 9 9 8 8 8 8 7 7 7 8 7 6 5 5 5 5 5 5 5 6 6 7 8 8 7 6 7 8 8 8 8 8 8 9 9 9 9
9 9 8 8 8 8 7 7 8 8 8 7 7 6 6 6 6 6 6 6 6 6 6 6 6 6 7 7 7 8 9 10 11 12 12 12 12 12 10 9 8 7 7 7 8 8 8 9 9 9 9 8 8 8 8 8 7 7 7 7 7 7 8 7 5 4 4 5 5 6 7 8 8 7 6 7 8 8 8 8 9 10 10 9 9 9
8 8 8 8 8 8 8 8 8 8 7 7 6 6 6 6 6 6 7 6 6 6 6 6 6 6 6 6 5 5 6 8 10 11 12 12 12 12 11 10 9 8 7 7 8 8 9 9 9 9 9 8 8 8 9 8 7 7 7 7 7 6 5 4 2 2 3 4 5 5 6 7 7 7 6 6 7 7 8 9 10 12 11 10 10 9
7 7 8 8 8 8 8 7 7 7 7 7 7 7 6 6 7 7 7 6 6 7 6 6 6 6 7 6 6 5 5 6 7 9 10 11 12 12 11 11 11 10 9 8 7 7 7 8 9 9 8 8 8 9 9 9 8 7 6 7 7 7 6 4 3 3 4 5 5 5 6 6 7 7 6 6 6 7 9 9 9 9 10 9 9 9
6 7 8 8 8 8 8 8 8 7 7 7 7 7 7 7 7 7 6 6 6 6 6 6 6 5 5 6 6 5 5 4 5 5 6 9 12 13 12 11 10 10 10 9 9 8 7 8 8 8 7 7 8 9 10 9 8 8 7 8 8 8 8 7 6 5 5 6 6 6 6 7 7 7 7 6 7 8 9 9 9 9 9 9 9 9
5 6 7 7 8 8 9 9 8 8 8 8 8 7 7 7 6 6 7 7 7 6 6 6 6 6 6 6 6 6 5 5 5 4 4 5 6 8 9 9 9 9 8 9 9 9 9 8 8 7 7 7 8 10 10 9 9 8 8 8 7 7 7 8 8 7 6 6 6 6 6 6 7 8 8 7 6 7 9 9 10 10 10 10 10 10
6 7 7 7 8 8 8 9 8 8 8 8 8 8 7 7 7 7 7 7 7 7 7 6 6 6 7 7 6 6 6 6 6 5 4 4 4 4 5 6 7 8 8 8 8 9 10 10 9 9 8 8 9 10 10 9 9 8 8 7 7 7 8 8 7 7 6 6 7 7 6 6 6 7 8 7 6 6 7 8 9 10 10 10 10 10
6 7 7 7 8 8 8 8 8 9 9 9 8 8 7 7 8 8 7 7 7 7 7 7 7 7 7 7 7 7 7 7 7 6 5 5 4 4 4 4 5 6 7 8 9 9 10 10 11 11 10 9 9 9 10 9 9 8 7 7 7 7 8 8 7 6 6 7 7 8 7 6 6 7 7 6 5 5 7 8 9 10 10 10 10 10
5 6 7 7 7 8 8 8 8 9 9 9 9 8 8 8 9 9 7 7 6 6 6 7 7 8 8 7 7 7 8 7 7 6 6 5 4 4 4 3 4 4 5 6 7 8 9 10 12 13 12 11 10 10 10 9 8 8 7 7 7 8 8 8 7 6 6 7 8 8 8 7 6 7 7 7 6 5 7 8 10 10 10 10 10 10
5 5 6 7 7 8 8 8 9 9 9 10 9 9 8 8 8 7 7 6 6 6 6 7 7 8 8 8 8 8 8 7 7 6 6 5 4 4 4 4 4 4 4 4 5 5 6 7 9 12 15 15 14 12 11 10 9 8 7 7 7 8 8 8 7 7 6 6 7 8 8 7 7 7 8 8 7 6 6 7 9 10 10 10 10 10
5 5 6 6 7 7 8 8 8 9 9 10 10 9 9 8 8 7 6 6 6 6 6 6 7 7 8 8 8 8 8 8 7 7 7 5 5 5 5 5 5 5 4 4 4 4 3 4 5 8 12 17 19 18 12 10 9 8 8 8 8 7 7 7 7 7 7 7 7 7 7 7 7 8 9 9 8 6 5 7 8 10 11 10 10 11
Wind_Direction
275 279 281 279 279 279 278 275 275 275 277 277 277 277 277 277 276 275 276 277 278 279 280 281 283 285 287 290 293 295 297 299 300 302 302 302 303 302 302 302 302 301 301 301 301 301 301 300 300 299 299 298 298 297 296 297 299 300 302 302 302 302 303 304 306 308 310 313 314 314 312 306 301 297 296 299 302 306 310 317 322 326 329 331 333 333
274 276 277 275 275 275 277 275 273 272 273 275 276 276 275 274 274 273 273 273 273 274 276 279 282 283 284 287 290 293 295 297 298 299 300 301 301 301 302 302 301 301 301 300 300 300 299 298 297 296 295 295 295 295 295 296 298 299 300 299 298 298 299 300 302 303 305 306 308 310 311 308 305 302 299 300 302 305 309 315 319 323 325 327 329 329
275 275 274 273 272 272 275 276 274 271 270 272 272 272 272 271 271 272 273 273 273 273 274 278 281 283 284 285 289 291 293 295 296 297 298 299 300 301 302 302 302 301 301 300 299 298 296 295 293 293 292 292 292 292 292 293 294 295 295 294 293 293 293 294 295 296 298 299 301 303 305 304 303 301 299 299 300 303 307 312 316 319 322 323 325 326
273 273 273 273 271 269 269 272 273 272 269 270 270 270 268 268 268 269 270 272 274 275 275 276 278 281 283 284 287 289 292 293 295 296 298 299 300 301 302 302 302 301 300 299 298 296 294 293 292 290 290 289 289 289 289 289 290 290 290 289 287 286 286 286 287 288 289 291 293 296 298 299 298 297 295 296 297 300 303 307 311 315 318 319 321 323
269 269 272 273 272 270 267 269 271 272 272 271 271 270 268 266 267 268 271 272 273 275 276 277 278 279 281 284 286 288 290 292 294 296 298 299 301 301 301 301 301 301 300 299 297 296 294 292 291 290 289 289 289 290 292 291 291 291 290 286 284 282 280 280 280 281 281 284 286 290 293 294 294 293 292 292 293 296 298 302 306 310 313 315 317 319
268 268 271 272 272 273 274 273 273 273 274 273 271 268 266 264 265 268 271 273 274 276 278 280 280 280 280 281 284 286 289 292 294 296 298 299 300 300 300 300 300 300 300 298 297 295 293 291 291 291 293 295 297 299 301 301 299 296 293 289 285 282 279 277 276 275 276 278 282 286 289 291 291 290 289 289 290 291 294 298 301 305 308 309 311 314
270 269 270 270 270 271 273 273 272 272 273 273 272 269 266 264 263 264 266 270 274 278 281 282 280 278 276 277 280 284 288 291 294 296 297 298 298 298 298 299 299 299 298 297 295 293 291 290 292 296 301 305 306 307 306 304 302 298 295 291 288 285 281 279 276 275 275 276 279 283 286 288 288 288 287 286 286 287 289 292 296 299 302 304 306 308
270 270 267 267 269 271 272 272 271 271 271 272 273 274 273 270 268 267 267 269 272 276 281 282 281 278 274 273 276 280 285 289 291 293 294 295 295 296 297 297 298 298 297 295 294 293 292 295 299 304 309 310 308 306 303 300 298 295 293 291 289 287 285 283 281 279 277 276 278 280 282 284 285 285 285 284 283 283 284 287 290 294 298 301 302 304
267 269 268 268 270 274 277 275 272 268 266 267 270 272 276 278 277 276 275 274 273 272 275 279 280 279 276 272 272 275 280 284 286 288 291 291 292 294 295 296 296 296 295 294 294 295 297 301 305 308 309 307 304 301 298 296 293 291 289 288 286 286 285 284 283 280 278 276 275 276 278 280 282 282 282 281 280 280 280 282 286 290 294 298 300 301
263 265 268 268 269 270 273 274 271 265 255 257 260 264 269 275 279 281 281 277 274 271 270 274 278 281 282 279 275 276 281 284 286 288 290 291 293 294 295 295 295 295 294 295 297 300 303 305 306 306 305 303 301 298 296 293 290 288 286 285 284 283 282 281 280 278 276 274 272 272 273 275 277 279 280 279 278 277 277 278 282 286 290 294 296 297
262 262 265 267 266 263 262 265 266 261 246 250 254 256 256 262 269 276 280 279 278 276 274 274 276 280 285 286 284 282 283 285 287 288 290 291 292 293 294 295 295 295 296 298 301 303 305 305 304 304 303 301 299 297 294 291 288 285 283 282 280 279 278 277 276 274 272 270 269 268 269 271 273 275 276 276 276 275 274 275 277 281 285 289 291 292
262 264 265 266 266 263 259 259 258 254 246 252 257 259 257 255 259 266 274 278 280 282 281 279 277 276 278 283 285 286 284 283 283 285 287 288 289 290 291 292 294 295 297 299 300 302 302 302 301 301 300 300 298 296 293 289 286 283 280 278 277 275 274 273 272 270 269 267 266 265 266 267 269 271 272 273 273 272 271 270 272 275 279 283 286 287
261 262 265 265 265 265 264 265 264 261 256 259 263 268 269 267 266 267 270 274 278 281 283 282 280 276 273 274 278 281 283 281 281 282 283 283 282 283 284 286 288 290 294 296 296 296 297 297 297 297 297 297 296 295 293 289 286 282 279 276 274 272 270 269 267 266 265 264 263 263 263 263 265 267 268 269 270 269 268 267 267 269 272 277 280 282
259 263 268 270 270 270 270 272 273 273 270 268 269 272 276 278 278 275 273 274 275 278 280 280 281 280 278 274 271 270 274 277 278 278 277 276 274 274 277 281 283 285 286 288 287 287 287 290 292 293 294 294 294 293 291 289 286 282 279 275 272 270 267 266 264 263 262 261 261 260 260 260 261 263 265 266 267 267 266 264 264 264 267 271 275 277
281 286 286 282 279 277 275 274 273 273 272 271 272 274 277 277 276 274 274 275 277 279 280 280 280 279 277 271 265 259 260 266 271 275 275 274 270 268 270 278 281 281 281 280 280 280 281 283 284 285 287 286 285 284 283 282 280 277 276 273 270 267 265 264 262 261 260 260 259 258 257 257 258 259 261 263 264 265 264 263 262 262 263 267 270 273
292 289 285 283 280 278 275 273 272 273 273 274 274 274 275 276 276 276 276 278 279 280 279 280 280 279 275 264 251 244 247 257 267 273 279 279 276 269 261 272 277 278 277 275 275 276 277 276 275 275 277 278 278 277 277 277 276 273 272 269 266 264 262 260 259 259 258 258 257 256 255 255 255 256 258 260 261 262 262 262 261 260 260 263 266 269
285 283 280 280 279 279 278 275 274 274 275 276 274 273 273 275 276 276 274 274 275 274 272 274 277 279 280 272 252 234 229 246 265 276 281 281 280 273 258 266 274 277 276 274 273 273 274 273 272 272 272 274 275 275 276 275 273 271 268 265 262 260 257 256 255 255 255 255 254 254 253 252 252 253 255 256 258 259 259 259 258 258 258 259 262 265
284 284 284 283 283 282 281 279 276 275 275 276 275 274 272 271 270 270 269 268 267 266 266 266 267 270 277 277 265 238 218 242 267 279 281 280 279 274 262 265 270 273 274 272 270 269 270 269 267 267 269 272 273 273 274 272 270 268 265 262 259 256 253 252 251 251 251 251 251 250 250 249 249 250 252 253 255 256 256 256 256 255 254 255 257 260
290 289 288 285 284 282 279 277 275 275 275 274 275 275 272 268 266 264 263 261 259 259 260 260 260 262 265 269 269 262 238 253 267 274 277 278 278 276 269 270 271 272 272 270 269 268 266 264 264 265 268 271 272 273 273 271 270 267 265 262 258 255 252 250 248 248 248 248 247 247 247 246 247 247 249 250 252 253 253 253 253 252 251 251 253 255
290 287 284 284 283 282 279 277 276 276 276 275 274 273 270 267 264 261 258 256 253 252 253 256 258 260 262 266 267 265 252 255 263 269 273 276 277 277 273 272 272 272 271 268 266 265 263 261 262 266 269 270 272 272 272 271 270 268 266 264 261 258 255 252 250 248 247 246 246 245 244 244 245 245 246 248 249 250 251 250 250 249 248 248 249 250
286 283 279 280 282 283 282 283 282 281 279 277 273 269 265 263 261 258 255 254 254 254 253 255 257 260 262 266 267 265 254 256 263 269 275 276 276 276 274 270 268 268 267 266 264 261 261 260 261 263 266 269 270 271 271 270 270 269 267 266 264 262 259 256 254 251 249 247 246 245 244 243 243 244 245 246 247 248 248 248 248 247 246 246 247 248
279 279 279 278 276 276 278 280 279 277 273 269 265 262 261 261 263 264 264 263 262 262 261 261 262 264 267 268 269 266 254 253 260 268 276 276 274 272 270 265 264 264 266 267 267 266 262 262 261 263 266 268 270 270 270 269 269 267 266 265 263 262 260 258 256 254 252 250 248 246 244 244 243 243 244 245 246 247 247 246 246 245 244 244 245 245
269 272 277 276 272 270 271 271 269 266 263 260 258 257 259 262 265 267 268 266 265 265 265 266 267 267 266 266 265 260 248 242 246 254 264 268 271 270 266 264 264 266 267 269 272 272 269 267 266 267 269 269 270 270 269 269 267 266 265 263 262 260 259 257 256 254 253 251 249 248 246 245 244 244 244 244 245 246 246 245 244 243 242 242 242 243
274 282 287 283 277 272 269 267 264 260 255 253 252 253 254 255 256 256 257 256 257 258 260 262 262 261 258 256 255 251 239 231 231 239 250 261 267 269 268 267 269 270 271 272 275 277 276 272 269 267 269 268 268 268 268 267 266 265 264 263 261 260 258 257 256 254 253 251 250 248 247 245 244 244 243 244 244 245 245 244 243 241 240 240 240 240
292 292 290 288 286 285 283 280 278 277 278 276 274 270 265 260 256 253 249 249 250 253 257 259 260 260 260 257 255 250 239 224 222 229 244 259 267 269 268 268 271 274 276 277 278 278 277 274 270 266 263 264 265 266 267 266 266 266 265 264 262 261 259 258 256 254 253 252 250 249 247 246 244 243 243 243 243 244 244 243 242 240 239 238 238 238
298 298 298 299 299 299 300 301 301 303 307 308 308 306 300 291 283 276 269 264 265 269 272 272 272 272 274 273 270 265 256 232 223 226 242 260 270 272 270 270 273 276 279 281 279 276 273 270 267 262 257 259 262 265 266 266 267 267 266 264 263 261 259 258 256 254 253 251 250 249 247 246 244 243 242 242 242 242 242 242 240 239 237 236 236 235
305 306 306 306 306 306 306 306 307 308 309 309 308 307 305 303 298 291 283 280 279 279 278 277 277 277 277 273 271 269 268 257 242 235 244 266 273 275 273 274 275 277 280 279 275 270 266 266 265 263 259 259 261 263 265 266 266 266 266 265 263 262 260 259 256 254 252 250 249 247 246 244 243 242 241 240 240 240 241 240 239 237 235 234 234 233
310 310 309 309 308 307 306 306 306 307 308 308 307 305 304 301 294 287 282 281 277 272 268 268 271 274 275 273 272 272 271 267 262 258 263 269 270 271 273 275 274 273 274 273 269 265 263 265 266 266 264 260 260 261 263 265 266 267 268 269 269 269 268 266 262 259 255 251 249 246 244 243 241 240 239 238 238 238 238 238 237 236 233 230 229 228
310 309 307 306 305 305 305 306 306 306 305 304 303 302 302 298 292 288 289 294 291 282 275 273 274 276 279 281 281 278 271 267 263 259 258 261 263 265 270 269 266 266 270 277 280 277 270 264 259 255 254 255 256 258 261 264 268 273 279 281 282 282 279 275 271 266 261 256 251 247 244 242 240 238 237 236 236 236 236 235 235 234 230 226 223 221
309 307 304 301 300 300 301 300 299 298 298 298 299 299 300 298 295 294 298 299 293 286 280 279 278 278 280 282 281 277 267 258 246 236 234 246 254 260 263 263 262 266 280 295 298 292 281 263 247 238 242 251 255 259 262 267 274 282 288 288 287 285 281 278 275 271 267 261 255 250 246 242 239 237 235 234 234 233 233 232 231 229 224 219 217 215
309 307 302 298 296 294 293 291 289 289 291 293 295 295 294 289 283 278 276 273 270 269 269 270 271 271 271 274 274 272 267 253 234 223 222 242 254 262 264 267 270 274 284 290 293 293 292 282 259 238 244 259 265 268 268 272 275 278 279 281 281 280 279 278 276 274 270 264 258 253 248 243 239 236 234 232 231 231 230 229 228 225 219 214 212 211
308 306 302 299 296 292 290 288 286 285 285 286 285 283 279 275 271 266 261 256 254 254 258 261 262 262 260 259 261 263 266 264 256 252 249 256 262 266 265 270 272 272 269 261 265 275 288 290 287 280 278 277 274 270 267 266 265 265 266 268 270 273 276 277 277 276 274 267 260 254 248 243 239 236 233 231 229 228 228 227 225 221 215 211 208 207
308 306 303 300 298 294 291 288 286 283 280 278 275 272 270 268 266 263 258 252 248 246 249 253 255 256 254 253 254 256 259 259 259 259 259 262 265 265 262 263 264 265 262 253 250 254 266 277 286 291 288 280 273 268 264 260 258 256 256 260 264 269 273 275 277 277 277 271 263 255 247 242 238 235 232 229 228 226 226 224 222 220 215 210 206 204
307 305 303 302 299 296 292 289 286 283 280 277 274 271 268 265 263 261 258 253 248 244 243 246 250 253 253 254 254 255 255 251 250 251 252 253 257 261 260 258 258 258 259 255 251 251 258 267 276 284 288 283 277 270 264 260 257 254 249 252 257 263 268 271 275 279 280 275 267 256 245 240 235 233 230 227 226 224 224 223 221 219 216 211 205 198
307 306 306 305 303 300 296 293 289 287 284 282 279 278 276 272 268 265 261 257 252 247 243 243 245 248 250 253 256 258 257 250 247 246 248 248 251 257 259 256 254 254 256 257 257 257 262 267 271 277 285 287 285 278 267 259 255 252 248 248 251 256 262 266 274 281 284 278 269 257 243 234 229 226 224 223 222 221 221 221 220 218 216 213 208 201
308 308 309 308 307 305 302 299 296 294 291 288 285 283 280 276 272 268 263 260 257 254 250 246 244 244 244 248 253 257 259 255 250 248 249 248 249 253 258 255 254 253 256 258 259 261 266 271 273 275 279 282 284 284 277 265 259 258 258 256 257 260 263 266 271 277 282 280 276 268 255 236 223 216 216 217 217 218 219 219 219 218 216 214 211 206
309 309 310 310 309 308 306 304 302 299 296 292 289 285 282 279 276 272 267 262 259 256 255 252 249 247 244 245 248 251 256 255 251 247 245 245 245 247 252 254 253 251 252 256 260 263 268 273 276 276 274 274 276 281 287 286 282 275 272 269 268 268 268 268 268 269 271 272 273 273 271 254 231 213 208 213 215 216 218 218 218 217 216 214 212 209
311 311 311 311 311 311 310 308 305 302 299 296 292 289 286 282 278 275 272 266 261 258 256 254 252 251 249 249 249 250 252 251 248 244 239 238 238 240 244 249 250 247 246 250 255 260 265 270 273 275 274 271 271 274 282 287 288 285 281 278 274 270 266 262 259 257 257 258 261 265 269 262 245 218 203 206 207 210 214 216 216 216 215 214 212 210
313 312 312 312 313 313 312 309 305 303 300 296 293 291 289 286 282 279 275 271 266 262 258 255 254 252 250 250 251 252 253 251 248 243 237 233 232 233 237 242 244 244 242 243 246 250 255 260 264 268 272 274 275 275 277 280 282 286 291 288 280 269 257 251 248 249 252 257 260 263 266 264 251 225 201 200 200 201 205 207 208 208 208 210 211 210
313 312 311 312 312 312 309 306 304 302 299 295 293 293 292 291 288 285 280 276 273 268 262 258 255 253 250 250 250 251 251 251 248 245 240 233 228 227 231 235 239 241 239 238 238 240 244 250 256 260 264 270 275 278 278 274 275 280 287 288 284 276 266 258 253 254 257 260 265 269 273 273 262 238 209 201 199 200 201 200 200 199 198 198 200 202
314 313 311 311 311 309 306 304 302 301 298 297 296 296 295 294 292 289 285 282 278 275 271 265 261 257 254 250 248 248 247 248 248 246 243 236 231 228 228 230 234 236 235 234 233 233 235 243 250 255 258 263 269 273 273 270 269 271 275 276 279 282 284 274 265 258 255 255 257 261 268 273 271 259 226 207 203 202 200 197 195 194 193 195 194 193
314 313 311 311 311 310 308 306 304 303 301 300 298 297 295 294 293 292 290 287 285 281 279 275 271 267 263 257 251 247 245 245 244 243 242 238 234 230 228 228 228 229 230 231 232 232 232 238 244 250 253 257 263 268 268 267 265 263 263 267 275 283 285 274 260 243 241 245 247 249 253 260 263 259 240 215 205 200 198 196 194 191 190 192 194 195
312 310 309 308 308 307 307 307 308 309 309 305 301 297 294 294 293 292 291 289 288 287 286 282 279 275 272 269 264 256 250 247 244 242 241 238 235 232 229 228 226 226 226 229 232 234 234 235 239 244 247 251 255 260 265 265 263 259 255 257 263 271 276 271 259 241 241 249 251 249 246 250 253 253 246 225 207 199 196 197 195 193 190 189 190 193
307 307 308 308 308 309 311 314 315 315 314 309 304 300 297 295 294 293 292 290 289 290 290 287 283 279 275 273 271 268 263 254 246 242 240 239 235 232 230 227 226 224 222 225 229 233 234 235 237 239 241 244 248 253 258 260 259 255 249 248 248 250 254 263 272 275 273 269 267 264 262 266 267 265 256 233 213 201 196 197 197 195 192 189 189 192
306 309 311 312 314 316 318 318 318 317 316 312 309 305 303 301 299 297 296 293 293 293 293 292 290 285 280 279 279 278 277 272 262 252 246 244 241 238 233 229 225 223 221 223 225 228 231 235 237 238 237 237 241 245 250 254 255 254 250 246 245 246 249 256 261 264 265 266 266 267 269 279 282 280 267 242 218 203 196 194 194 194 193 190 191 192
312 315 316 316 316 317 317 317 318 318 317 315 313 311 309 308 305 302 300 299 298 298 297 296 293 290 288 289 290 291 289 287 282 275 264 253 245 239 234 231 228 225 222 222 223 225 228 232 235 237 236 237 239 241 243 246 249 251 250 247 245 246 249 250 250 249 249 255 260 263 266 274 278 276 267 248 224 205 195 193 193 194 194 192 192 192
320 319 318 317 316 316 316 318 319 320 318 317 316 315 314 313 310 308 306 306 304 303 302 300 296 292 290 292 293 294 293 292 290 287 281 271 259 248 241 238 235 233 230 227 225 225 227 229 230 231 231 236 241 243 243 242 242 244 245 243 242 243 247 247 245 242 240 245 252 257 260 263 266 265 263 255 236 212 196 193 194 195 196 195 194 194
322 320 318 317 316 315 316 318 320 320 318 317 315 315 316 316 316 315 311 311 308 306 305 303 300 296 293 292 292 292 292 292 291 291 289 285 279 269 256 250 245 242 240 238 236 233 231 229 227 226 226 231 238 244 246 242 240 239 240 238 238 240 244 246 244 240 237 239 243 246 249 249 252 256 261 257 244 219 200 193 193 195 197 196 196 196
323 321 320 318 316 316 316 318 319 319 317 316 316 316 316 316 317 317 313 311 308 305 304 303 301 299 297 295 294 293 292 291 290 289 289 289 287 283 277 268 260 254 249 245 242 240 238 234 229 226 223 226 233 241 246 244 241 238 237 235 235 237 242 245 243 238 233 234 236 237 238 241 247 256 266 259 247 225 206 195 192 193 195 196 196 197
324 323 321 319 317 316 315 316 317 318 317 317 317 317 317 317 317 315 311 308 306 304 301 300 299 299 297 297 296 296 296 294 293 291 290 291 292 291 289 284 279 272 264 254 246 241 239 238 233 229 224 223 225 231 240 241 240 237 235 233 232 233 238 242 240 236 230 231 233 234 235 237 242 250 260 258 250 235 216 201 194 191 192 193 195 198
326 326 324 320 318 315 315 316 316 317 316 317 318 318 317 317 316 314 312 311 309 306 302 300 297 296 295 296 297 298 298 297 296 295 294 295 295 294 292 289 286 283 278 272 262 252 245 246 244 236 228 222 220 220 227 231 233 233 233 232 230 229 232 237 237 234 229 229 230 231 232 232 232 236 242 247 245 236 223 208 196 189 188 189 192 197